Location: Dammartin
(48.9032°N, 1.6195°E)
Time: 21:12:38
(UTC+00:00)

Cosmos 1869 - Pass Details

Date: 03 February 2023
Orbit: 510 x 550 km, 82.5° (Epoch: 21 March)

Event Time Altitude Azimuth Distance (km) Brightness Sun altitude
Rises 19:01:22 0° 345° (NNW) 2,661 7.0 -21.1°
Reaches altitude 10° 19:03:32 10° 341° (NNW) 1,774 6.1 -21.5°
Maximum altitude 19:07:19 51° 265° (W) 673 4.1 -22.1°
Drops below altitude 10° 19:11:07 10° 189° (S) 1,784 6.0 -22.7°
Sets 19:13:18 0° 185° (S) 2,678 6.9 -23.1°
